Time,TemperatureF,DewpointF,PressureIn,WindDirection,WindDirectionDegrees,WindSpeedMPH,WindSpeedGustMPH,Humidity,HourlyPrecipIn,Conditions,Clouds,dailyrainin,SoftwareType,DateUTC
2013-05-20 00:04:00,49.4,47.5,30.24,SSE,148,2.0,4.0,93,0.00,,,0.00,Wunderground v.1.15,2013-05-20 04:04:00,
2013-05-20 00:09:00,49.4,47.5,30.24,SE,130,1.0,1.0,93,0.00,,,0.00,Wunderground v.1.15,2013-05-20 04:09:00,
2013-05-20 00:14:00,49.4,47.5,30.23,ESE,118,0.0,4.0,93,0.00,,,0.00,Wunderground v.1.15,2013-05-20 04:14:00,
2013-05-20 00:19:00,49.4,47.5,30.23,SE,141,0.0,4.0,93,0.00,,,0.00,Wunderground v.1.15,2013-05-20 04:19:00,
2013-05-20 00:29:00,49.5,47.6,30.22,ESE,119,0.0,4.0,93,0.00,,,0.00,Wunderground v.1.15,2013-05-20 04:29:00,
2013-05-20 00:39:00,49.6,47.7,30.22,SE,138,0.0,4.0,93,0.00,,,0.00,Wunderground v.1.15,2013-05-20 04:39:00,
2013-05-20 00:44:00,49.6,47.7,30.22,SE,139,0.0,4.0,93,0.00,,,0.00,Wunderground v.1.15,2013-05-20 04:44:00,
2013-05-20 00:54:00,49.8,47.9,30.22,ENE,72,0.0,4.0,93,0.00,,,0.00,Wunderground v.1.15,2013-05-20 04:54:00,
2013-05-20 00:59:00,49.8,47.9,30.22,ENE,72,0.0,0.0,93,0.00,,,0.00,Wunderground v.1.15,2013-05-20 04:59:00,
2013-05-20 01:09:00,49.9,48.0,30.21,ENE,76,0.0,0.0,93,0.00,,,0.00,Wunderground v.1.15,2013-05-20 05:09:00,
2013-05-20 01:14:00,49.9,48.0,30.21,ENE,76,0.0,0.0,93,0.00,,,0.00,Wunderground v.1.15,2013-05-20 05:14:00,
2013-05-20 01:24:00,50.0,48.1,30.20,ENE,61,0.0,0.0,93,0.00,,,0.01,Wunderground v.1.15,2013-05-20 05:24:00,
2013-05-20 01:34:00,49.8,47.9,30.19,ENE,73,0.0,3.0,93,0.00,,,0.01,Wunderground v.1.15,2013-05-20 05:34:00,
2013-05-20 01:44:00,49.8,47.9,30.19,ENE,64,3.0,3.0,93,0.00,,,0.02,Wunderground v.1.15,2013-05-20 05:44:00,
2013-05-20 01:49:00,49.8,47.9,30.19,ENE,62,3.0,3.0,93,0.00,,,0.02,Wunderground v.1.15,2013-05-20 05:49:00,
2013-05-20 01:59:00,49.8,47.9,30.19,ENE,70,2.0,2.0,93,0.04,,,0.03,Wunderground v.1.15,2013-05-20 05:59:00,
2013-05-20 02:04:00,49.8,47.9,30.18,ENE,63,2.0,2.0,93,0.04,,,0.03,Wunderground v.1.15,2013-05-20 06:04:00,
2013-05-20 02:09:00,49.8,47.9,30.19,ENE,63,2.0,2.0,93,0.00,,,0.03,Wunderground v.1.15,2013-05-20 06:09:00,
2013-05-20 02:19:00,49.9,48.0,30.18,ENE,77,2.0,2.0,93,0.00,,,0.04,Wunderground v.1.15,2013-05-20 06:19:00,
2013-05-20 02:29:00,49.9,48.0,30.17,ENE,73,2.0,3.0,93,0.04,,,0.05,Wunderground v.1.15,2013-05-20 06:29:00,
2013-05-20 02:34:00,49.9,48.0,30.17,ENE,75,2.0,3.0,93,0.07,,,0.06,Wunderground v.1.15,2013-05-20 06:34:00,
2013-05-20 02:44:00,49.9,48.0,30.17,ENE,70,1.0,2.0,93,0.13,,,0.08,Wunderground v.1.15,2013-05-20 06:44:00,
2013-05-20 02:54:00,49.9,48.0,30.17,ENE,69,0.0,0.0,93,0.23,,,0.11,Wunderground v.1.15,2013-05-20 06:54:00,
2013-05-20 02:59:00,49.9,48.0,30.16,ENE,66,0.0,0.0,93,0.13,,,0.13,Wunderground v.1.15,2013-05-20 06:59:00,
2013-05-20 03:04:00,49.9,48.0,30.16,ENE,65,0.0,0.0,93,0.11,,,0.13,Wunderground v.1.15,2013-05-20 07:04:00,
2013-05-20 03:14:00,49.9,48.0,30.16,East,82,0.0,0.0,93,0.12,,,0.15,Wunderground v.1.15,2013-05-20 07:14:00,
2013-05-20 03:24:00,50.1,48.2,30.16,ENE,72,0.0,0.0,93,0.13,,,0.18,Wunderground v.1.15,2013-05-20 07:24:00,
2013-05-20 03:34:00,50.1,48.2,30.15,ENE,73,0.0,0.0,93,0.14,,,0.20,Wunderground v.1.15,2013-05-20 07:34:00,
2013-05-20 03:44:00,50.2,48.3,30.14,ENE,77,1.0,1.0,93,0.15,,,0.22,Wunderground v.1.15,2013-05-20 07:44:00,
2013-05-20 03:49:00,50.2,48.3,30.14,ENE,76,1.0,1.0,93,0.13,,,0.23,Wunderground v.1.15,2013-05-20 07:49:00,
2013-05-20 03:59:00,50.2,48.3,30.13,East,86,0.0,1.0,93,0.08,,,0.24,Wunderground v.1.15,2013-05-20 07:59:00,
2013-05-20 04:09:00,50.3,48.4,30.13,East,91,0.0,0.0,93,0.09,,,0.26,Wunderground v.1.15,2013-05-20 08:09:00,
2013-05-20 04:19:00,50.6,48.7,30.13,ENE,73,1.0,1.0,93,0.09,,,0.27,Wunderground v.1.15,2013-05-20 08:19:00,
2013-05-20 04:29:00,51.0,49.0,30.12,ENE,75,3.0,4.0,93,0.05,,,0.28,Wunderground v.1.15,2013-05-20 08:29:00,
2013-05-20 04:34:00,51.2,49.2,30.11,ESE,110,2.0,4.0,93,0.05,,,0.28,Wunderground v.1.15,2013-05-20 08:34:00,
2013-05-20 04:39:00,51.2,49.2,30.11,NE,46,2.0,2.0,93,0.04,,,0.28,Wunderground v.1.15,2013-05-20 08:39:00,
2013-05-20 04:49:00,51.4,49.4,30.10,East,91,3.0,4.0,93,0.00,,,0.28,Wunderground v.1.15,2013-05-20 08:49:00,
2013-05-20 04:59:00,52.0,50.0,30.10,East,101,5.0,7.0,93,0.00,,,0.28,Wunderground v.1.15,2013-05-20 08:59:00,
2013-05-20 05:09:00,52.2,50.2,30.10,ENE,72,6.0,6.0,93,0.00,,,0.29,Wunderground v.1.15,2013-05-20 09:09:00,
2013-05-20 05:14:00,52.3,50.3,30.09,SE,134,7.0,7.0,93,0.06,,,0.30,Wunderground v.1.15,2013-05-20 09:14:00,
2013-05-20 05:19:00,52.2,50.2,30.09,ESE,105,8.0,9.0,93,0.07,,,0.30,Wunderground v.1.15,2013-05-20 09:19:00,
2013-05-20 05:24:00,52.2,50.2,30.09,ESE,121,8.0,9.0,93,0.07,,,0.31,Wunderground v.1.15,2013-05-20 09:24:00,
2013-05-20 05:34:00,52.2,50.2,30.09,South,183,7.0,8.0,93,0.04,,,0.31,Wunderground v.1.15,2013-05-20 09:34:00,
2013-05-20 05:44:00,52.3,50.3,30.08,SE,134,8.0,8.0,93,0.00,,,0.32,Wunderground v.1.15,2013-05-20 09:44:00,
2013-05-20 05:49:00,52.2,50.2,30.09,SE,134,7.0,7.0,93,0.00,,,0.32,Wunderground v.1.15,2013-05-20 09:49:00,
2013-05-20 05:59:00,52.2,50.2,30.08,ESE,115,7.0,7.0,93,0.00,,,0.32,Wunderground v.1.15,2013-05-20 09:59:00,
2013-05-20 06:04:00,52.2,50.2,30.08,SE,144,7.0,7.0,93,0.00,,,0.32,Wunderground v.1.15,2013-05-20 10:04:00,
2013-05-20 06:09:00,52.1,50.1,30.09,ENE,76,7.0,7.0,93,0.00,,,0.32,Wunderground v.1.15,2013-05-20 10:09:00,
2013-05-20 06:14:00,52.0,50.0,30.08,ESE,113,6.0,7.0,93,0.00,,,0.33,Wunderground v.1.15,2013-05-20 10:14:00,
2013-05-20 06:19:00,51.8,49.8,30.08,East,85,6.0,6.0,93,0.00,,,0.33,Wunderground v.1.15,2013-05-20 10:19:00,
2013-05-20 06:29:00,51.6,49.6,30.07,East,83,4.0,4.0,93,0.04,,,0.34,Wunderground v.1.15,2013-05-20 10:29:00,
2013-05-20 06:39:00,51.4,49.4,30.07,ENE,67,4.0,5.0,93,0.04,,,0.34,Wunderground v.1.15,2013-05-20 10:39:00,
2013-05-20 06:49:00,51.3,49.3,30.07,ESE,109,5.0,5.0,93,0.04,,,0.35,Wunderground v.1.15,2013-05-20 10:49:00,
2013-05-20 06:54:00,51.3,49.3,30.08,East,92,3.0,5.0,93,0.06,,,0.36,Wunderground v.1.15,2013-05-20 10:54:00,
2013-05-20 07:04:00,51.4,49.4,30.06,East,81,3.0,6.0,93,0.28,,,0.41,Wunderground v.1.15,2013-05-20 11:04:00,
2013-05-20 07:14:00,51.4,49.4,30.07,ENE,76,5.0,6.0,93,0.10,,,0.42,Wunderground v.1.15,2013-05-20 11:14:00,
2013-05-20 07:24:00,51.4,49.4,30.07,SE,132,4.0,6.0,93,0.05,,,0.43,Wunderground v.1.15,2013-05-20 11:24:00,
2013-05-20 07:34:00,51.4,49.4,30.08,ENE,78,1.0,4.0,93,0.05,,,0.44,Wunderground v.1.15,2013-05-20 11:34:00,
2013-05-20 07:39:00,51.4,49.4,30.07,East,99,2.0,2.0,93,0.28,,,0.47,Wunderground v.1.15,2013-05-20 11:39:00,
2013-05-20 07:49:00,51.5,49.5,30.07,ENE,65,1.0,1.0,93,0.13,,,0.51,Wunderground v.1.15,2013-05-20 11:49:00,
2013-05-20 07:59:00,51.6,49.6,30.08,ENE,69,0.0,1.0,93,0.17,,,0.53,Wunderground v.1.15,2013-05-20 11:59:00,
2013-05-20 08:09:00,51.6,49.6,30.05,East,96,4.0,6.0,93,0.22,,,0.57,Wunderground v.1.15,2013-05-20 12:09:00,
2013-05-20 08:19:00,51.7,49.7,30.04,SSE,156,5.0,5.0,93,0.11,,,0.59,Wunderground v.1.15,2013-05-20 12:19:00,
2013-05-20 08:29:00,51.8,49.8,30.02,ESE,106,8.0,14.0,93,0.06,,,0.60,Wunderground v.1.15,2013-05-20 12:29:00,
2013-05-20 08:39:00,51.7,49.7,30.02,SSE,147,8.0,8.0,93,0.08,,,0.62,Wunderground v.1.15,2013-05-20 12:39:00,
2013-05-20 08:49:00,51.8,49.8,30.02,SE,143,5.0,5.0,93,0.10,,,0.63,Wunderground v.1.15,2013-05-20 12:49:00,
2013-05-20 08:54:00,51.8,49.8,30.02,SE,140,5.0,6.0,93,0.07,,,0.64,Wunderground v.1.15,2013-05-20 12:54:00,
2013-05-20 09:04:00,51.9,49.9,30.02,SSE,153,4.0,5.0,93,0.10,,,0.65,Wunderground v.1.15,2013-05-20 13:04:00,
2013-05-20 09:09:00,52.0,50.0,30.02,SSW,202,5.0,5.0,93,0.09,,,0.66,Wunderground v.1.15,2013-05-20 13:09:00,
2013-05-20 09:14:00,52.1,50.1,30.02,SE,141,5.0,8.0,93,0.20,,,0.68,Wunderground v.1.15,2013-05-20 13:14:00,
2013-05-20 09:24:00,52.2,50.2,30.01,SSE,159,5.0,5.0,93,0.09,,,0.70,Wunderground v.1.15,2013-05-20 13:24:00,
2013-05-20 09:34:00,52.5,50.5,30.01,SSE,156,3.0,6.0,93,0.17,,,0.72,Wunderground v.1.15,2013-05-20 13:34:00,
2013-05-20 09:44:00,52.7,50.7,30.01,SE,141,3.0,4.0,93,0.08,,,0.73,Wunderground v.1.15,2013-05-20 13:44:00,
2013-05-20 09:49:00,52.8,50.8,30.01,SE,140,2.0,4.0,93,0.05,,,0.73,Wunderground v.1.15,2013-05-20 13:49:00,
2013-05-20 09:59:00,53.0,50.7,30.00,South,177,4.0,9.0,92,0.04,,,0.74,Wunderground v.1.15,2013-05-20 13:59:00,
2013-05-20 10:04:00,52.9,50.6,30.00,SSW,207,4.0,9.0,92,0.05,,,0.75,Wunderground v.1.15,2013-05-20 14:04:00,
2013-05-20 10:14:00,53.0,50.7,30.00,SSW,211,5.0,6.0,92,0.09,,,0.76,Wunderground v.1.15,2013-05-20 14:14:00,
2013-05-20 10:19:00,53.0,50.7,30.00,SSW,202,4.0,4.0,92,0.07,,,0.76,Wunderground v.1.15,2013-05-20 14:19:00,
2013-05-20 10:29:00,53.3,51.0,30.00,SSW,206,3.0,3.0,92,0.06,,,0.77,Wunderground v.1.15,2013-05-20 14:29:00,
2013-05-20 10:39:00,53.6,51.3,30.00,South,185,2.0,4.0,92,0.00,,,0.77,Wunderground v.1.15,2013-05-20 14:39:00,
2013-05-20 10:44:00,53.6,51.3,30.00,SSE,163,4.0,6.0,92,0.00,,,0.77,Wunderground v.1.15,2013-05-20 14:44:00,
2013-05-20 10:54:00,53.7,51.4,30.00,WSW,257,4.0,8.0,92,0.00,,,0.78,Wunderground v.1.15,2013-05-20 14:54:00,
2013-05-20 10:59:00,53.9,51.6,30.00,SW,226,2.0,2.0,92,0.00,,,0.78,Wunderground v.1.15,2013-05-20 14:59:00,
2013-05-20 11:04:00,54.1,51.8,30.00,WSW,254,1.0,2.0,92,0.00,,,0.78,Wunderground v.1.15,2013-05-20 15:04:00,
2013-05-20 11:14:00,54.3,52.0,29.99,SW,214,1.0,1.0,92,0.00,,,0.79,Wunderground v.1.15,2013-05-20 15:14:00,
2013-05-20 11:19:00,54.4,52.1,29.99,SSW,202,2.0,2.0,92,0.00,,,0.79,Wunderground v.1.15,2013-05-20 15:19:00,
2013-05-20 11:24:00,54.6,52.3,29.98,SSW,192,2.0,2.0,92,0.00,,,0.79,Wunderground v.1.15,2013-05-20 15:24:00,
2013-05-20 11:29:00,54.9,52.6,29.99,SW,223,2.0,4.0,92,0.00,,,0.79,Wunderground v.1.15,2013-05-20 15:29:00,
2013-05-20 11:34:00,55.3,52.7,29.99,SSW,213,2.0,4.0,91,0.00,,,0.79,Wunderground v.1.15,2013-05-20 15:34:00,
2013-05-20 11:44:00,55.9,53.3,29.98,WSW,253,2.0,2.0,91,0.00,,,0.79,Wunderground v.1.15,2013-05-20 15:44:00,
2013-05-20 11:54:00,56.7,54.1,29.98,West,273,1.0,2.0,91,0.00,,,0.79,Wunderground v.1.15,2013-05-20 15:54:00,
2013-05-20 11:59:00,57.0,54.1,29.97,SW,221,2.0,2.0,90,0.00,,,0.79,Wunderground v.1.15,2013-05-20 15:59:00,
2013-05-20 12:09:00,57.5,54.6,29.96,SSW,213,2.0,2.0,90,0.00,,,0.79,Wunderground v.1.15,2013-05-20 16:09:00,
2013-05-20 12:19:00,58.2,55.0,29.96,WSW,238,3.0,3.0,89,0.00,,,0.79,Wunderground v.1.15,2013-05-20 16:19:00,
2013-05-20 12:24:00,58.6,55.4,29.96,West,259,3.0,3.0,89,0.00,,,0.79,Wunderground v.1.15,2013-05-20 16:24:00,
2013-05-20 12:29:00,58.8,55.3,29.96,West,260,3.0,3.0,88,0.00,,,0.79,Wunderground v.1.15,2013-05-20 16:29:00,
2013-05-20 12:39:00,58.7,55.2,29.95,WNW,291,4.0,6.0,88,0.00,,,0.79,Wunderground v.1.15,2013-05-20 16:39:00,
2013-05-20 12:49:00,59.1,55.5,29.95,West,270,3.0,5.0,88,0.00,,,0.79,Wunderground v.1.15,2013-05-20 16:49:00,
2013-05-20 12:54:00,58.9,55.4,29.95,WSW,257,3.0,5.0,88,0.00,,,0.79,Wunderground v.1.15,2013-05-20 16:54:00,
2013-05-20 12:59:00,59.5,55.9,29.95,WSW,245,4.0,4.0,88,0.00,,,0.79,Wunderground v.1.15,2013-05-20 16:59:00,
2013-05-20 13:04:00,59.5,55.9,29.94,WSW,250,4.0,7.0,88,0.00,,,0.79,Wunderground v.1.15,2013-05-20 17:04:00,
2013-05-20 13:14:00,59.6,55.7,29.94,WNW,288,4.0,5.0,87,0.00,,,0.79,Wunderground v.1.15,2013-05-20 17:14:00,
2013-05-20 13:19:00,59.8,56.2,29.94,West,264,3.0,5.0,88,0.00,,,0.79,Wunderground v.1.15,2013-05-20 17:19:00,
2013-05-20 13:24:00,60.0,56.4,29.94,SSW,210,4.0,5.0,88,0.00,,,0.79,Wunderground v.1.15,2013-05-20 17:24:00,
2013-05-20 13:34:00,60.3,56.4,29.94,West,266,4.0,6.0,87,0.00,,,0.79,Wunderground v.1.15,2013-05-20 17:34:00,
2013-05-20 13:39:00,60.5,56.6,29.94,WSW,252,4.0,4.0,87,0.00,,,0.79,Wunderground v.1.15,2013-05-20 17:39:00,
2013-05-20 13:44:00,60.9,57.3,29.94,SSW,211,3.0,4.0,88,0.00,,,0.79,Wunderground v.1.15,2013-05-20 17:44:00,
2013-05-20 13:54:00,62.0,58.1,29.93,West,259,3.0,6.0,87,0.00,,,0.79,Wunderground v.1.15,2013-05-20 17:54:00,
2013-05-20 13:59:00,62.1,57.9,29.93,SW,222,3.0,3.0,86,0.00,,,0.79,Wunderground v.1.15,2013-05-20 17:59:00,
2013-05-20 14:09:00,62.5,57.9,29.93,WSW,248,4.0,4.0,85,0.00,,,0.79,Wunderground v.1.15,2013-05-20 18:09:00,
2013-05-20 14:19:00,62.9,58.6,29.93,West,267,4.0,6.0,86,0.00,,,0.79,Wunderground v.1.15,2013-05-20 18:19:00,
2013-05-20 14:29:00,63.4,58.5,29.93,West,271,4.0,5.0,84,0.00,,,0.79,Wunderground v.1.15,2013-05-20 18:29:00,
2013-05-20 14:34:00,63.8,58.9,29.93,WSW,252,4.0,5.0,84,0.00,,,0.79,Wunderground v.1.15,2013-05-20 18:34:00,
2013-05-20 14:39:00,64.0,59.1,29.93,NW,315,4.0,5.0,84,0.00,,,0.79,Wunderground v.1.15,2013-05-20 18:39:00,
2013-05-20 14:49:00,64.4,59.1,29.93,West,268,4.0,4.0,83,0.00,,,0.79,Wunderground v.1.15,2013-05-20 18:49:00,
2013-05-20 14:54:00,65.0,59.4,29.93,WNW,282,4.0,5.0,82,0.00,,,0.79,Wunderground v.1.15,2013-05-20 18:54:00,
2013-05-20 15:04:00,65.8,59.8,29.92,SSW,213,5.0,6.0,81,0.00,,,0.79,Wunderground v.1.15,2013-05-20 19:04:00,
2013-05-20 15:14:00,66.7,60.3,29.92,NW,311,3.0,4.0,80,0.00,,,0.79,Wunderground v.1.15,2013-05-20 19:14:00,
2013-05-20 15:24:00,67.9,60.1,29.92,WNW,300,5.0,11.0,76,0.00,,,0.79,Wunderground v.1.15,2013-05-20 19:24:00,
2013-05-20 15:34:00,67.9,60.1,29.92,West,275,7.0,8.0,76,0.00,,,0.79,Wunderground v.1.15,2013-05-20 19:34:00,
2013-05-20 15:39:00,68.0,60.5,29.92,West,277,6.0,6.0,77,0.00,,,0.79,Wunderground v.1.15,2013-05-20 19:39:00,
2013-05-20 15:44:00,68.0,60.5,29.92,WNW,302,6.0,6.0,77,0.00,,,0.79,Wunderground v.1.15,2013-05-20 19:44:00,
2013-05-20 15:54:00,68.3,60.4,29.92,West,279,4.0,7.0,76,0.00,,,0.79,Wunderground v.1.15,2013-05-20 19:54:00,
2013-05-20 15:59:00,67.8,60.3,29.92,ENE,61,4.0,4.0,77,0.00,,,0.79,Wunderground v.1.15,2013-05-20 19:59:00,
2013-05-20 16:04:00,66.7,60.0,29.92,East,84,3.0,4.0,79,0.00,,,0.79,Wunderground v.1.15,2013-05-20 20:04:00,
2013-05-20 16:09:00,66.2,59.8,29.92,ESE,110,2.0,2.0,80,0.00,,,0.79,Wunderground v.1.15,2013-05-20 20:09:00,
2013-05-20 16:19:00,65.7,59.4,29.92,East,94,2.0,2.0,80,0.00,,,0.79,Wunderground v.1.15,2013-05-20 20:19:00,
2013-05-20 16:24:00,65.0,59.4,29.92,ESE,121,2.0,2.0,82,0.00,,,0.79,Wunderground v.1.15,2013-05-20 20:24:00,
2013-05-20 16:29:00,64.6,59.0,29.92,East,86,2.0,2.0,82,0.00,,,0.79,Wunderground v.1.15,2013-05-20 20:29:00,
2013-05-20 16:39:00,63.5,58.6,29.92,South,178,4.0,5.0,84,0.00,,,0.79,Wunderground v.1.15,2013-05-20 20:39:00,
2013-05-20 16:49:00,63.8,58.5,29.92,East,82,5.0,5.0,83,0.00,,,0.79,Wunderground v.1.15,2013-05-20 20:49:00,
2013-05-20 16:59:00,63.9,58.6,29.92,SSE,150,3.0,3.0,83,0.00,,,0.79,Wunderground v.1.15,2013-05-20 20:59:00,
2013-05-20 17:04:00,64.0,58.4,29.92,ENE,65,2.0,3.0,82,0.00,,,0.79,Wunderground v.1.15,2013-05-20 21:04:00,
2013-05-20 17:14:00,61.9,57.0,29.92,ENE,58,2.0,4.0,84,0.00,,,0.79,Wunderground v.1.15,2013-05-20 21:14:00,
2013-05-20 17:24:00,60.6,56.4,29.93,NE,53,3.0,3.0,86,0.00,,,0.79,Wunderground v.1.15,2013-05-20 21:24:00,
2013-05-20 17:34:00,60.5,56.3,29.93,NE,53,2.0,2.0,86,0.00,,,0.79,Wunderground v.1.15,2013-05-20 21:34:00,
2013-05-20 17:44:00,60.5,56.3,29.94,ENE,58,4.0,5.0,86,0.00,,,0.79,Wunderground v.1.15,2013-05-20 21:44:00,
2013-05-20 17:54:00,59.9,56.0,29.94,NE,55,5.0,5.0,87,0.00,,,0.79,Wunderground v.1.15,2013-05-20 21:54:00,
2013-05-20 17:59:00,59.8,55.9,29.94,ENE,60,5.0,5.0,87,0.00,,,0.79,Wunderground v.1.15,2013-05-20 21:59:00,
2013-05-20 18:04:00,59.8,55.9,29.94,NE,55,5.0,5.0,87,0.00,,,0.79,Wunderground v.1.15,2013-05-20 22:04:00,
2013-05-20 18:09:00,59.7,55.8,29.94,ENE,63,5.0,5.0,87,0.00,,,0.79,Wunderground v.1.15,2013-05-20 22:09:00,
2013-05-20 18:14:00,59.9,56.0,29.94,ENE,67,5.0,5.0,87,0.00,,,0.79,Wunderground v.1.15,2013-05-20 22:14:00,
2013-05-20 18:19:00,59.9,56.0,29.93,ENE,57,4.0,4.0,87,0.00,,,0.79,Wunderground v.1.15,2013-05-20 22:19:00,
2013-05-20 18:29:00,60.4,56.5,29.94,ENE,61,3.0,4.0,87,0.00,,,0.79,Wunderground v.1.15,2013-05-20 22:29:00,
2013-05-20 18:34:00,60.7,56.8,29.94,ENE,63,3.0,4.0,87,0.00,,,0.79,Wunderground v.1.15,2013-05-20 22:34:00,
2013-05-20 18:39:00,60.9,56.7,29.94,ENE,61,3.0,3.0,86,0.00,,,0.79,Wunderground v.1.15,2013-05-20 22:39:00,
2013-05-20 18:49:00,61.0,56.8,29.94,ENE,73,2.0,2.0,86,0.00,,,0.79,Wunderground v.1.15,2013-05-20 22:49:00,
2013-05-20 18:54:00,61.5,57.3,29.94,ENE,72,1.0,2.0,86,0.00,,,0.79,Wunderground v.1.15,2013-05-20 22:54:00,
2013-05-20 18:59:00,62.0,57.4,29.95,East,89,0.0,2.0,85,0.00,,,0.79,Wunderground v.1.15,2013-05-20 22:59:00,
2013-05-20 19:09:00,61.1,56.9,29.95,East,87,1.0,2.0,86,0.00,,,0.79,Wunderground v.1.15,2013-05-20 23:09:00,
2013-05-20 19:14:00,60.8,56.6,29.95,East,83,2.0,3.0,86,0.00,,,0.79,Wunderground v.1.15,2013-05-20 23:14:00,
2013-05-20 19:24:00,60.2,56.0,29.96,East,84,3.0,3.0,86,0.00,,,0.79,Wunderground v.1.15,2013-05-20 23:24:00,
2013-05-20 19:34:00,59.0,55.1,29.96,ENE,73,4.0,7.0,87,0.00,,,0.79,Wunderground v.1.15,2013-05-20 23:34:00,
2013-05-20 19:39:00,58.4,54.5,29.97,ENE,76,4.0,4.0,87,0.00,,,0.79,Wunderground v.1.15,2013-05-20 23:39:00,
2013-05-20 19:44:00,58.0,54.2,29.97,East,90,3.0,4.0,87,0.00,,,0.79,Wunderground v.1.15,2013-05-20 23:44:00,
2013-05-20 19:54:00,57.4,53.9,29.96,SE,144,1.0,2.0,88,0.00,,,0.79,Wunderground v.1.15,2013-05-20 23:54:00,
2013-05-20 20:04:00,56.4,52.9,29.96,East,98,2.0,2.0,88,0.00,,,0.79,Wunderground v.1.15,2013-05-21 00:04:00,
2013-05-20 20:09:00,56.1,52.9,29.95,East,82,2.0,2.0,89,0.00,,,0.79,Wunderground v.1.15,2013-05-21 00:09:00,
2013-05-20 20:19:00,55.9,52.7,29.95,East,79,1.0,1.0,89,0.00,,,0.79,Wunderground v.1.15,2013-05-21 00:19:00,
2013-05-20 20:29:00,55.7,52.5,29.96,NNE,26,0.0,1.0,89,0.00,,,0.79,Wunderground v.1.15,2013-05-21 00:29:00,
2013-05-20 20:39:00,55.5,52.6,29.96,NE,56,1.0,4.0,90,0.00,,,0.79,Wunderground v.1.15,2013-05-21 00:39:00,
2013-05-20 20:49:00,55.4,52.5,29.96,NE,55,2.0,2.0,90,0.00,,,0.79,Wunderground v.1.15,2013-05-21 00:49:00,
2013-05-20 20:59:00,55.1,52.2,29.97,NNE,24,2.0,2.0,90,0.00,,,0.79,Wunderground v.1.15,2013-05-21 00:59:00,
2013-05-20 21:04:00,55.0,52.1,29.97,NE,43,2.0,3.0,90,0.00,,,0.79,Wunderground v.1.15,2013-05-21 01:04:00,
2013-05-20 21:09:00,54.7,51.8,29.98,NE,56,4.0,5.0,90,0.00,,,0.79,Wunderground v.1.15,2013-05-21 01:09:00,
2013-05-20 21:14:00,54.3,51.4,29.98,ENE,76,4.0,5.0,90,0.00,,,0.79,Wunderground v.1.15,2013-05-21 01:14:00,
2013-05-20 21:24:00,54.0,51.4,29.98,ENE,73,3.0,4.0,91,0.00,,,0.79,Wunderground v.1.15,2013-05-21 01:24:00,
2013-05-20 21:34:00,53.8,51.2,29.98,ENE,76,1.0,3.0,91,0.00,,,0.79,Wunderground v.1.15,2013-05-21 01:34:00,
2013-05-20 21:44:00,53.5,50.9,29.98,ENE,76,2.0,2.0,91,0.00,,,0.79,Wunderground v.1.15,2013-05-21 01:44:00,
2013-05-20 21:54:00,53.4,51.1,29.98,East,90,1.0,2.0,92,0.00,,,0.79,Wunderground v.1.15,2013-05-21 01:54:00,
2013-05-20 22:04:00,53.3,51.0,29.98,ESE,103,0.0,0.0,92,0.00,,,0.79,Wunderground v.1.15,2013-05-21 02:04:00,
2013-05-20 22:09:00,53.3,51.0,29.98,ENE,75,0.0,0.0,92,0.00,,,0.79,Wunderground v.1.15,2013-05-21 02:09:00,
2013-05-20 22:19:00,53.3,51.0,29.98,ENE,69,1.0,1.0,92,0.00,,,0.79,Wunderground v.1.15,2013-05-21 02:19:00,
2013-05-20 22:29:00,53.4,51.1,29.98,ENE,70,1.0,1.0,92,0.00,,,0.79,Wunderground v.1.15,2013-05-21 02:29:00,
2013-05-20 22:39:00,53.2,50.9,29.98,ENE,70,0.0,0.0,92,0.00,,,0.79,Wunderground v.1.15,2013-05-21 02:39:00,
2013-05-20 22:44:00,53.2,50.9,29.99,ENE,71,0.0,0.0,92,0.00,,,0.79,Wunderground v.1.15,2013-05-21 02:44:00,
2013-05-20 22:49:00,53.2,50.9,29.98,ENE,67,0.0,0.0,92,0.00,,,0.79,Wunderground v.1.15,2013-05-21 02:49:00,
2013-05-20 22:59:00,53.0,50.7,29.99,ENE,78,0.0,0.0,92,0.00,,,0.79,Wunderground v.1.15,2013-05-21 02:59:00,
2013-05-20 23:09:00,52.9,50.6,29.99,East,81,0.0,0.0,92,0.00,,,0.79,Wunderground v.1.15,2013-05-21 03:09:00,
2013-05-20 23:14:00,53.0,50.7,29.98,ENE,74,0.0,3.0,92,0.00,,,0.79,Wunderground v.1.15,2013-05-21 03:14:00,
2013-05-20 23:24:00,52.8,50.5,29.98,ENE,78,2.0,3.0,92,0.00,,,0.79,Wunderground v.1.15,2013-05-21 03:24:00,
2013-05-20 23:34:00,52.9,50.6,29.99,ENE,61,0.0,1.0,92,0.00,,,0.79,Wunderground v.1.15,2013-05-21 03:34:00,
2013-05-20 23:39:00,53.0,50.7,30.00,ENE,62,0.0,0.0,92,0.00,,,0.79,Wunderground v.1.15,2013-05-21 03:39:00,
2013-05-20 23:44:00,53.1,50.8,30.00,ENE,59,0.0,0.0,92,0.00,,,0.79,Wunderground v.1.15,2013-05-21 03:44:00,
2013-05-20 23:54:00,53.3,51.0,30.00,ENE,60,0.0,1.0,92,0.00,,,0.00,Wunderground v.1.15,2013-05-21 03:54:00,
2013-05-20 23:59:00,53.3,51.0,30.00,NE,55,1.0,2.0,92,0.00,,,0.00,Wunderground v.1.15,2013-05-21 03:59:00,